Tracking 30166 objects as of 22-Jan-2025
HD Live streaming from Space Station
objects crossing your sky now

STARLINK-11475

Track STARLINK-11475 now!
10-day predictions
STARLINK-11475 is classified as:


NORAD ID: 62226
Int'l Code: 2024-231J
Perigee: 365.8 km
Apogee: 367.6 km
Inclination: 53.2 °
Period: 91.7 minutes
Semi major axis: 6737 km
RCS: Unknown
Launch date: December 5, 2024
Source: United States (US)
Launch site: AIR FORCE WESTERN TEST RANGE (AFWTR)
Your satellite tracking list
Your tracking list is empty




NASA's NSSDC Master Catalog

Two Line Element Set (TLE):
1 62226U 24231J   25022.16667824 -.00114779  00000-0 -95311-3 0  9994
2 62226  53.1575 329.7780 0001297  76.4414 125.1572 15.69773612  8735
Source of the keplerian elements: AFSPC